Novato, CA

7:09 PM PST on December 11, 2017 (GMT -0800)
Gnoss

Weather History for KDVO - November, 2012

Change the Weather History Date:

Thursday, November 29, 2012

  Actual Average (KAPC) Record (KAPC)
Temperature  
Mean Temperature 58 °F -  
Max Temperature 62 °F 60 °F 72 °F (2009)
Min Temperature 55 °F 40 °F 23 °F (2015)
Degree Days  
Heating Degree Days 6    
Growing Degree Days 8 (Base 50)    
Moisture  
Dew Point 58 °F    
Average Humidity 97    
Maximum Humidity 100    
Minimum Humidity 88    
Precipitation  
Precipitation 0.13 in - - ()
Sea Level Pressure  
Sea Level Pressure 29.96 in    
Wind  
Wind Speed 12 mph (South)    
Max Wind Speed 34 mph    
Max Gust Speed 48 mph    
Visibility 7 miles    
Events Rain    
Averages and records for this station are not official NWS values.
T = Trace of Precipitation, MM = Missing Value Source: NWS Daily Summary

Daily Weather History Graph

Daily Weather History Graph

Search for Another Location

Airport or City:

Trip Planner

Search our weather history database for the weather conditions in past years. The results will help you decide how hot, cold, wet, or windy it might be!

Date:

Astronomy

Nov. 29, 2012 Rise Set
Actual Time 7:06 AM PST 4:50 PM PST
Civil Twilight 6:37 AM PST 5:19 PM PST
Nautical Twilight 6:04 AM PST 5:52 PM PST
Astronomical Twilight 5:33 AM PST 6:24 PM PST
Moon 5:58 PM PST (11/29) 7:57 AM PST (11/29)
Length of Visible Light 10h 42m
Length of Day
9h 44m
Full, 99% of the Moon is Illuminated
Nov 29
Full
Dec 6
Last Quarter
Dec 13
New
Dec 19
First Quarter
Dec 28
Full

Hourly Weather History & Observations

Time (PST) Temp. Dew Point Humidity Pressure Visibility Wind Dir Wind Speed Gust Speed Precip Events Conditions
12:15 AM 55.4 °F 53.6 °F 94% 30.04 in 10.0 mi SSE 5.8 mph - N/A   Clear
12:35 AM 55.4 °F 53.6 °F 94% 30.04 in 10.0 mi SSE 5.8 mph - N/A   Partly Cloudy
12:55 AM 55.4 °F 53.6 °F 94% 30.04 in 10.0 mi South 11.5 mph - N/A   Scattered Clouds
1:15 AM 55.4 °F 53.6 °F 94% 30.04 in 10.0 mi South 10.4 mph - N/A   Scattered Clouds
1:35 AM 55.4 °F 53.6 °F 94% 30.04 in 10.0 mi South 12.7 mph - N/A   Mostly Cloudy
1:55 AM 57.2 °F 53.6 °F 88% 30.04 in 10.0 mi South 9.2 mph - N/A   Mostly Cloudy
2:15 AM 57.2 °F 53.6 °F 88% 30.03 in 10.0 mi South 9.2 mph - N/A   Mostly Cloudy
2:35 AM 55.4 °F 55.4 °F 100% 30.04 in 2.5 mi South 11.5 mph - N/A Rain Light Rain
2:55 AM 55.4 °F 55.4 °F 100% 30.04 in 8.0 mi South 10.4 mph - N/A   Overcast
3:15 AM 55.4 °F 55.4 °F 100% 30.04 in 7.0 mi SSE 4.6 mph - N/A Rain Light Rain
3:35 AM 55.4 °F 55.4 °F 100% 30.03 in 10.0 mi SSE 5.8 mph - N/A   Overcast
3:55 AM 55.4 °F 55.4 °F 100% 30.02 in 10.0 mi SSE 5.8 mph - N/A   Overcast
4:15 AM 55.4 °F 55.4 °F 100% 30.02 in 10.0 mi South 5.8 mph - N/A   Overcast
4:35 AM 57.2 °F 57.2 °F 100% 30.02 in 10.0 mi SSE 5.8 mph - N/A   Mostly Cloudy
4:55 AM 57.2 °F 57.2 °F 100% 30.02 in 10.0 mi SSE 6.9 mph - N/A   Mostly Cloudy
5:15 AM 57.2 °F 57.2 °F 100% 30.01 in 10.0 mi SSE 8.1 mph - N/A   Scattered Clouds
5:35 AM 57.2 °F 57.2 °F 100% 30.02 in 5.0 mi SSE 10.4 mph - N/A Rain Light Rain
5:55 AM 55.4 °F 55.4 °F 100% 30.02 in 3.0 mi SSE 10.4 mph - N/A Rain Light Rain
6:15 AM 57.2 °F 57.2 °F 100% 30.01 in 7.0 mi South 12.7 mph 17.3 mph N/A   Overcast
6:35 AM 57.2 °F 55.4 °F 94% 30.02 in 10.0 mi South 10.4 mph 17.3 mph N/A   Overcast
6:55 AM 57.2 °F 55.4 °F 94% 30.02 in 10.0 mi South 11.5 mph - N/A   Mostly Cloudy
7:15 AM 57.2 °F 55.4 °F 94% 30.02 in 10.0 mi South 9.2 mph - N/A   Mostly Cloudy
7:35 AM 57.2 °F 55.4 °F 94% 30.02 in 10.0 mi South 8.1 mph - N/A   Mostly Cloudy
7:55 AM 57.2 °F 55.4 °F 94% 30.02 in 10.0 mi SSE 8.1 mph - N/A   Mostly Cloudy
8:15 AM 57.2 °F 55.4 °F 94% 30.03 in 10.0 mi SSE 8.1 mph 17.3 mph N/A   Mostly Cloudy
8:35 AM 57.2 °F 55.4 °F 94% 30.03 in 10.0 mi SSE 11.5 mph - N/A   Mostly Cloudy
8:55 AM 59.0 °F 55.4 °F 88% 30.02 in 10.0 mi SSE 11.5 mph - N/A   Mostly Cloudy
9:15 AM 59.0 °F 55.4 °F 88% 30.02 in 10.0 mi SSE 12.7 mph 17.3 mph N/A   Mostly Cloudy
9:35 AM 59.0 °F 55.4 °F 88% 30.02 in 10.0 mi SSE 10.4 mph 17.3 mph N/A   Mostly Cloudy
9:55 AM 59.0 °F 55.4 °F 88% 30.02 in 10.0 mi SSE 11.5 mph 16.1 mph N/A   Mostly Cloudy
10:15 AM 59.0 °F 55.4 °F 88% 30.02 in 10.0 mi SSE 11.5 mph - N/A   Overcast
10:35 AM 59.0 °F 55.4 °F 88% 30.02 in 10.0 mi South 10.4 mph 18.4 mph N/A   Overcast
10:55 AM 59.0 °F 55.4 °F 88% 30.02 in 10.0 mi South 16.1 mph 20.7 mph N/A   Overcast
11:15 AM 57.2 °F 57.2 °F 100% 30.01 in 2.5 mi SSE 9.2 mph 19.6 mph N/A Rain Light Rain
11:35 AM 55.4 °F 55.4 °F 100% 30.02 in 1.2 mi South 12.7 mph 16.1 mph N/A Rain Light Rain
11:55 AM 57.2 °F 57.2 °F 100% 30.00 in 2.5 mi SSE 8.1 mph - N/A Rain Light Rain
12:15 PM 57.2 °F 57.2 °F 100% 29.99 in 10.0 mi SSE 6.9 mph - N/A   Unknown
12:35 PM 59.0 °F 59.0 °F 100% 29.98 in 10.0 mi SE 8.1 mph - N/A   Overcast
12:55 PM 59.0 °F 59.0 °F 100% 29.97 in 8.0 mi SSE 9.2 mph 19.6 mph N/A   Mostly Cloudy
1:15 PM 59.0 °F 59.0 °F 100% 29.97 in 8.0 mi SSE 9.2 mph 19.6 mph N/A   Overcast
1:35 PM 60.8 °F 60.8 °F 100% 29.95 in 5.0 mi South 18.4 mph 32.2 mph N/A   Mostly Cloudy
1:55 PM 60.8 °F 59.0 °F 94% 29.94 in 10.0 mi SSE 10.4 mph 24.2 mph N/A   Overcast
2:15 PM 59.0 °F 59.0 °F 100% 29.94 in 10.0 mi SSE 15.0 mph 21.9 mph N/A   Overcast
2:35 PM 59.0 °F 59.0 °F 100% 29.93 in 10.0 mi South 12.7 mph 21.9 mph N/A   Overcast
2:55 PM 59.0 °F 59.0 °F 100% 29.92 in 10.0 mi South 15.0 mph 23.0 mph N/A   Overcast
3:15 PM 59.0 °F 59.0 °F 100% 29.92 in 10.0 mi South 15.0 mph 21.9 mph N/A   Overcast
3:35 PM 59.0 °F 59.0 °F 100% 29.92 in 10.0 mi SSE 15.0 mph 27.6 mph N/A   Overcast
3:55 PM 59.0 °F 59.0 °F 100% 29.92 in 2.0 mi SSE 10.4 mph 23.0 mph N/A Rain Light Rain
4:15 PM 57.2 °F 57.2 °F 100% 29.92 in 4.0 mi South 10.4 mph 17.3 mph N/A Rain Light Rain
4:35 PM 59.0 °F 59.0 °F 100% 29.91 in 5.0 mi South 12.7 mph 27.6 mph N/A Rain Light Rain
4:55 PM 60.8 °F 60.8 °F 100% 29.91 in 7.0 mi South 21.9 mph 28.8 mph N/A Rain Light Rain
5:15 PM 60.8 °F 60.8 °F 100% 29.90 in 4.0 mi South 23.0 mph 34.5 mph N/A Rain Light Rain
5:35 PM 60.8 °F 60.8 °F 100% 29.89 in 5.0 mi South 24.2 mph 35.7 mph N/A Rain Light Rain
5:55 PM 60.8 °F 60.8 °F 100% 29.90 in 9.0 mi South 19.6 mph 29.9 mph N/A Rain Light Rain
6:15 PM 59.0 °F 59.0 °F 100% 29.90 in 5.0 mi South 17.3 mph 31.1 mph N/A Rain Light Rain
6:35 PM 59.0 °F 59.0 °F 100% 29.89 in 3.0 mi South 18.4 mph 29.9 mph N/A Rain Light Rain
6:55 PM 60.8 °F 60.8 °F 100% 29.88 in 9.0 mi South 21.9 mph 32.2 mph N/A   Overcast
7:15 PM 60.8 °F 60.8 °F 100% 29.88 in 10.0 mi South 21.9 mph 31.1 mph N/A   Overcast
7:35 PM 62.6 °F 62.6 °F 100% 29.88 in 6.0 mi South 19.6 mph 35.7 mph N/A Rain Light Rain
7:55 PM 60.8 °F 60.8 °F 100% 29.87 in 3.0 mi South 25.3 mph 35.7 mph N/A Rain Light Rain
8:15 PM 60.8 °F 60.8 °F 100% 29.86 in 3.0 mi South 24.2 mph 34.5 mph N/A Rain Light Rain
8:35 PM 60.8 °F 60.8 °F 100% 29.86 in 2.0 mi South 23.0 mph 31.1 mph 0.01 in Rain Light Rain
8:55 PM 60.8 °F 60.8 °F 100% 29.86 in 2.5 mi South 24.2 mph 35.7 mph 0.02 in Rain Light Rain
9:15 PM 60.8 °F 60.8 °F 100% 29.85 in 2.5 mi South 34.5 mph 48.3 mph 0.02 in Rain Light Rain
9:35 PM 60.8 °F 60.8 °F 100% 29.85 in 2.5 mi South 25.3 mph 36.8 mph 0.04 in Rain Light Rain
9:55 PM 60.8 °F 60.8 °F 100% 29.85 in 2.5 mi South 23.0 mph 47.2 mph 0.05 in Rain Light Rain
10:15 PM 60.8 °F 60.8 °F 100% 29.86 in 1.8 mi SSW 24.2 mph 36.8 mph 0.02 in Rain Light Rain
10:35 PM 60.8 °F 60.8 °F 100% 29.84 in 3.0 mi South 21.9 mph 33.4 mph 0.03 in Rain Light Rain
10:55 PM 60.8 °F 60.8 °F 100% 29.84 in 4.0 mi South 17.3 mph 26.5 mph 0.03 in Rain Light Rain
11:15 PM 60.8 °F 60.8 °F 100% 29.84 in 5.0 mi South 21.9 mph 38.0 mph N/A Rain Light Rain
11:35 PM 60.8 °F 60.8 °F 100% 29.83 in 2.0 mi South 20.7 mph 31.1 mph 0.01 in Rain Rain
11:55 PM 60.8 °F 60.8 °F 100% 29.83 in 2.5 mi South 20.7 mph 31.1 mph 0.03 in Rain Light Rain